[[{"header":{"parameterUnit":"m.s-1","parameterCategory":1,"la1":30.2991,"la2":30.254,"lo1":-89.0895,"lo2":-89.0444,"dy":0.0017,"dx":0.0017,"nx":28,"ny":28,"refTime":"2025-01-16T03:00:00:Z","depth":0,"parameterNumber":2,"parameterNumberName":"U-component_of_WINDS"},"data":[0,0,0,0,0,0,0,0,0,0,0,0,0,0,0,0,0,0,0,0,0,0,0,0,0,0,0,0,0,0,0,0,0,0,0,0,0,0,0,0,0,0,0,0,0,0,0,0,0,0,0,0,0,0,0,0,0,0,-2.8247,-2.8247,0,-2.8278,-2.8278,-2.8279,-2.8242,-2.8241,-2.8239,-2.8238,-2.8271,-2.8273,-2.8276,0,0,0,0,0,0,0,0,0,0,0,0,0,-2.816,-2.8161,-2.8247,-2.8247,-2.8248,-2.8278,-2.8278,-2.8279,-2.8242,-2.8241,-2.8239,-2.8237,-2.8271,-2.8273,-2.8276,0,0,0,0,0,0,0,0,0,0,0,0,0,-2.8195,-2.8162,-2.8247,-2.8233,-2.8232,-2.8278,-2.8278,-2.8279,-2.8243,-2.8241,-2.8239,-2.8237,-2.827,-2.8273,-2.8276,-2.8337,0,0,-2.8286,-2.8287,0,0,0,0,0,0,0,0,-2.8193,-2.8198,-2.8235,-2.8234,-2.8233,-2.8254,-2.826,-2.8298,-2.8243,-2.8239,-2.8238,-2.8236,-2.8267,-2.8271,-2.8281,-2.8339,-2.834,-2.8286,-2.8288,-2.829,-2.8291,0,0,0,0,0,0,0,-2.8191,-2.8197,-2.8259,-2.8235,-2.8234,-2.8227,-2.8229,-2.8267,-2.8264,-2.8239,-2.8236,-2.8241,-2.8267,-2.8278,-2.8282,-2.8341,-2.8286,-2.8289,-2.8291,-2.8292,-2.8453,-2.8455,0,0,0,0,0,0,-2.8189,-2.8195,-2.8258,-2.826,-2.8208,-2.823,-2.8233,-2.8249,-2.8264,-2.8264,-2.8242,-2.8239,-2.8273,-2.8278,-2.8283,-2.8356,-2.829,-2.8293,-2.8295,-2.845,-2.8453,-2.8456,0,0,0,0,0,0,-2.8188,-2.8195,-2.8257,-2.8227,-2.8234,-2.8234,-2.8252,-2.8251,-2.8262,-2.8266,-2.8266,-2.8254,-2.8272,-2.8278,-2.8324,-2.8356,-2.8294,-2.8297,-2.8448,-2.8451,-2.8454,-2.8502,0,0,0,0,0,0,-2.8185,-2.8195,-2.8217,-2.8228,-2.8236,-2.8297,-2.8254,-2.8253,-2.8268,-2.8264,-2.8277,-2.8277,-2.8271,-2.832,-2.8328,-2.836,-2.83,-2.8445,-2.8449,-2.8453,-2.8498,-2.8507,-2.8515,0,0,0,0,0,-2.8182,-2.8229,-2.8218,-2.8226,-2.8263,-2.8299,-2.8304,-2.8295,-2.8271,-2.8294,-2.8297,-2.8277,-2.8352,-2.8325,-2.8333,-2.8367,-2.8443,-2.8448,-2.8453,-2.8494,-2.8505,-2.8515,0,0,0,0,0,0,-2.8222,-2.823,-2.8218,-2.8269,-2.8284,-2.8293,-2.8321,-2.8307,-2.8328,-2.8323,-2.8312,-2.8315,-2.8365,-2.8371,-2.834,-2.8428,-2.8394,-2.8401,-2.8422,-2.8432,-2.8441,-2.8438,-2.8302,0,0,0,0,0,-2.8237,-2.8264,-2.827,-2.8315,-2.8323,-2.8321,-2.8336,-2.8328,-2.8343,-2.8349,-2.8355,-2.837,-2.8398,-2.8416,-2.8441,-2.8499,-2.8503,-2.8527,-2.8536,-2.8543,-2.8548,-2.8582,-2.8593,-2.8473,-2.8473,-2.8473,0,0,-2.8267,-2.8275,-2.8293,-2.8323,-2.8333,-2.8363,-2.8326,-2.8359,-2.8381,-2.8354,-2.8398,-2.8404,-2.842,-2.8473,-2.8497,-2.848,-2.8583,-2.8549,-2.8555,-2.8557,-2.8588,-2.8599,-2.861,-2.8476,-2.8476,-2.8475,0,0,-2.8338,-2.8346,-2.8385,-2.8397,-2.8413,-2.8412,-2.8422,-2.8433,-2.8436,-2.848,-2.8461,-2.8488,-2.8535,-2.8548,-2.8561,-2.8641,-2.8625,-2.865,-2.8694,-2.8726,-2.8736,-2.8744,-2.8773,-2.8783,-2.8656,-2.8656,-2.8656,0,-2.8373,-2.8416,-2.8407,-2.8442,-2.8456,-2.8434,-2.8474,-2.8486,-2.851,-2.8521,-2.8502,-2.8562,-2.8572,-2.8628,-2.8648,-2.8659,-2.8671,-2.8647,-2.8735,-2.8743,-2.8751,-2.8778,-2.8789,-2.8659,-2.8659,-2.8659,-2.8658,0,-2.846,-2.8491,-2.8521,-2.8544,-2.8563,-2.86,-2.8598,-2.8618,-2.861,-2.8611,-2.8658,-2.867,-2.8697,-2.8711,-2.8703,-2.8767,-2.8756,-2.8736,-2.8701,-2.8765,-2.8791,-2.8801,-2.8664,-2.8662,-2.8662,-2.8661,0,0,-2.8553,-2.8574,-2.8585,-2.8596,-2.8614,-2.8638,-2.8676,-2.8703,-2.8721,-2.874,-2.8771,-2.8813,-2.8796,-2.8811,-2.8805,-2.8833,-2.8897,-2.881,-2.881,-2.8826,-2.897,-2.8984,-2.8996,-2.8887,-2.8889,-2.8891,-2.8969,0,-2.8624,-2.8688,-2.8682,-2.8743,-2.8772,-2.8754,-2.8787,-2.8802,-2.8806,-2.8832,-2.8837,-2.8867,-2.8841,-2.885,-2.8878,-2.8883,-2.8926,-2.8878,-2.8917,-2.8919,-2.8912,-2.901,-2.9024,-2.9097,-2.8979,-2.898,-2.8982,0,-2.8714,-2.8736,-2.88,-2.8816,-2.8828,-2.8857,-2.8883,-2.8909,-2.8927,-2.8928,-2.8946,-2.8936,-2.8976,-2.8942,-2.8997,-2.8965,-2.8982,-2.8987,-2.899,-2.8992,-2.8953,-2.9014,-2.912,-2.913,-2.8997,-2.8996,-2.8995,0,-2.8775,-2.8821,-2.8866,-2.8876,-2.8896,-2.8917,-2.8927,-2.8943,-2.8961,-2.8985,-2.8996,-2.9024,-2.904,-2.9062,-2.9061,-2.9036,-2.9118,-2.9083,-2.912,-2.9121,-2.9137,-2.9135,-2.9246,-2.9149,-2.9149,-2.9149,-2.9149,0,-2.8854,-2.8894,-2.8894,-2.8921,-2.8966,-2.8961,-2.9006,-2.9013,-2.9029,-2.9059,-2.9045,-2.9073,-2.907,-2.91,-2.9099,-2.9146,-2.9153,-2.9156,-2.9155,-2.9156,-2.9156,-2.9165,-2.916,-2.9152,-2.9151,-2.9151,-2.915,0,-2.8929,-2.893,-2.8978,-2.8994,-2.8999,-2.9031,-2.9045,-2.9072,-2.9076,-2.9114,-2.9122,-2.9129,-2.9163,-2.9164,-2.9203,-2.9203,-2.926,-2.9254,-2.9253,-2.9252,-2.9289,-2.9286,-2.9409,-2.9425,-2.9319,-2.932,-2.932,0,-2.8978,-2.9008,-2.9028,-2.9047,-2.9058,-2.9088,-2.9106,-2.9104,-2.9124,-2.9149,-2.9173,-2.9206,-2.9232,-2.9288,-2.9296,-2.9327,-2.9321,-2.9363,-2.9325,-2.9327,-2.9322,-2.9319,-2.9323,-2.9369,-2.937,-2.9371,-2.9372,0,-2.9066,-2.9066,-2.9092,-2.9121,-2.9143,-2.9165,-2.9185,-2.9202,-2.9202,-2.9226,-2.926,-2.9281,-2.9322,-2.9355,-2.9385,-2.9396,-2.9385,-2.9384,-2.9394,-2.9395,-2.9393,-2.9395,-2.9272,-2.9381,-2.938,-2.9379,-2.9379,-2.9378,-2.9129,-2.9156,-2.9174,-2.9205,-2.9221,-2.9241,-2.9268,-2.9276,-2.9304,-2.9337,-2.9334,-2.9373,-2.9394,-2.9434,-2.9448,-2.9479,-2.9465,-2.948,-2.9483,-2.9487,-2.9491,-2.939,-2.9485,-2.9484,-2.9484,-2.9484,-2.9484,0,-2.9216,-2.9227,-2.9256,-2.9286,-2.9311,-2.9299,-2.9322,-2.9344,-2.9378,-2.9398,-2.9424,-2.9466,-2.9499,-2.9511,-2.9544,-2.9567,-2.9563,-2.9576,-2.9573,-2.9576,-2.9501,-2.9489,-2.9579,-2.9579,-2.9578,-2.9578,-2.9578,-2.9578,-2.9263,-2.9309,-2.9312,-2.9365,-2.9377,-2.9415,-2.9429,-2.9449,-2.9465,-2.9511,-2.9539,-2.9547,-2.9565,-2.9599,-2.963,-2.9633,-2.9646,-2.9661,-2.9662,-2.9591,-2.9581,-2.9572,-2.956,-2.9664,-2.9664,-2.9734,-2.9735,-2.9735]},{"header":{"parameterUnit":"m.s-1","parameterCategory":1,"la1":30.2991,"la2":30.254,"lo1":-89.0895,"lo2":-89.0444,"dy":0.0017,"dx":0.0017,"nx":28,"ny":28,"refTime":"2025-01-16T03:00:00:Z","depth":0,"parameterNumber":3,"parameterNumberName":"V-component_of_WINDS"},"data":[0,0,0,0,0,0,0,0,0,0,0,0,0,0,0,0,0,0,0,0,0,0,0,0,0,0,0,0,0,0,0,0,0,0,0,0,0,0,0,0,0,0,0,0,0,0,0,0,0,0,0,0,0,0,0,0,0,0,3.257,3.257,0,3.2586,3.2586,3.2586,3.2623,3.2624,3.2625,3.2626,3.2638,3.2637,3.2637,0,0,0,0,0,0,0,0,0,0,0,0,0,3.2569,3.2569,3.257,3.257,3.257,3.2585,3.2586,3.2586,3.2623,3.2624,3.2625,3.2626,3.2638,3.2637,3.2637,0,0,0,0,0,0,0,0,0,0,0,0,0,3.2576,3.2569,3.257,3.2591,3.2593,3.2585,3.2586,3.2586,3.2623,3.2624,3.2625,3.2626,3.2638,3.2637,3.2637,3.2609,0,0,3.2635,3.2635,0,0,0,0,0,0,0,0,3.2575,3.2576,3.2587,3.2589,3.2591,3.2604,3.259,3.2594,3.2623,3.2611,3.2626,3.2627,3.2625,3.2626,3.2626,3.261,3.261,3.2635,3.2634,3.2634,3.2634,0,0,0,0,0,0,0,3.2575,3.2575,3.2576,3.2587,3.259,3.2598,3.2601,3.2591,3.2611,3.2612,3.2615,3.2617,3.2626,3.2626,3.2626,3.261,3.2635,3.2634,3.2634,3.2634,3.2575,3.2574,0,0,0,0,0,0,3.2572,3.2575,3.2575,3.2576,3.2586,3.2598,3.26,3.2598,3.2611,3.2615,3.2616,3.2618,3.2627,3.2627,3.2627,3.2597,3.2634,3.2634,3.2633,3.2576,3.2575,3.2573,0,0,0,0,0,0,3.2572,3.2571,3.2575,3.2576,3.2577,3.2596,3.2594,3.2598,3.2598,3.2614,3.2618,3.2612,3.2628,3.2628,3.2614,3.2598,3.2633,3.2633,3.2577,3.2576,3.2574,3.2537,0,0,0,0,0,0,3.2571,3.2571,3.2561,3.2576,3.2577,3.2562,3.2593,3.2598,3.2598,3.2601,3.2612,3.2614,3.2629,3.2615,3.2614,3.2598,3.2632,3.2579,3.2577,3.2575,3.2539,3.2534,3.2529,0,0,0,0,0,3.2571,3.2549,3.2561,3.256,3.2565,3.2561,3.2562,3.258,3.2596,3.2586,3.2597,3.2614,3.26,3.2613,3.2612,3.2596,3.258,3.2577,3.2575,3.2542,3.2535,3.2529,0,0,0,0,0,0,3.253,3.2551,3.2564,3.2546,3.2552,3.2567,3.2555,3.2572,3.2572,3.2575,3.2597,3.2599,3.2582,3.2588,3.2602,3.2571,3.2593,3.259,3.2568,3.2562,3.2557,3.2556,3.2632,0,0,0,0,0,3.2519,3.2515,3.2533,3.2515,3.2517,3.2536,3.2535,3.2549,3.2555,3.2557,3.2566,3.2571,3.2568,3.2565,3.2563,3.254,3.2544,3.2529,3.2524,3.2519,3.2516,3.2507,3.2501,3.2565,3.2565,3.2565,0,0,3.2495,3.2506,3.2502,3.2507,3.2513,3.2508,3.2537,3.253,3.2527,3.2555,3.2544,3.2551,3.2557,3.254,3.2532,3.2544,3.25,3.2516,3.2512,3.2512,3.2503,3.2497,3.2492,3.2563,3.2563,3.2563,0,0,3.2451,3.2458,3.2445,3.2451,3.2461,3.2474,3.2471,3.2485,3.2491,3.2481,3.2503,3.2498,3.2492,3.2496,3.2498,3.2457,3.2473,3.2456,3.2428,3.2419,3.2414,3.2409,3.2396,3.2391,3.2453,3.2452,3.2452,0,3.242,3.2414,3.2436,3.2428,3.243,3.2458,3.2445,3.2449,3.2457,3.2458,3.2471,3.2465,3.2471,3.2456,3.2447,3.2446,3.2444,3.2454,3.2413,3.2409,3.2405,3.2393,3.2388,3.245,3.2451,3.2451,3.2451,0,3.2377,3.2373,3.2361,3.237,3.2371,3.236,3.238,3.2377,3.2392,3.2403,3.2392,3.2401,3.2402,3.24,3.2412,3.2387,3.2394,3.2409,3.2432,3.2397,3.2385,3.2381,3.2447,3.2448,3.2449,3.2449,0,0,3.2305,3.2329,3.2324,3.233,3.2343,3.234,3.2331,3.2334,3.2332,3.2337,3.233,3.2326,3.2341,3.2343,3.2356,3.2348,3.2317,3.2365,3.2366,3.2357,3.2291,3.228,3.2274,3.2328,3.2327,3.2327,3.2291,0,3.2265,3.2252,3.2272,3.2255,3.2252,3.2279,3.2272,3.2279,3.229,3.2288,3.23,3.2297,3.2317,3.2318,3.2311,3.2322,3.2304,3.2325,3.2322,3.2322,3.2321,3.2268,3.2256,3.2221,3.2287,3.2286,3.2285,0,3.2215,3.222,3.2203,3.222,3.2219,3.2212,3.2218,3.2216,3.2225,3.2234,3.2237,3.2254,3.2246,3.2268,3.2258,3.2272,3.2272,3.2278,3.2277,3.2278,3.2302,3.2268,3.2211,3.2206,3.2278,3.2279,3.2279,0,3.2166,3.2168,3.2159,3.2163,3.2182,3.2177,3.2184,3.2195,3.2196,3.22,3.2201,3.2204,3.2205,3.2207,3.2224,3.2238,3.2213,3.2236,3.222,3.2219,3.2213,3.2214,3.2156,3.2212,3.2212,3.2212,3.2212,0,3.2119,3.2108,3.2138,3.2132,3.2121,3.2144,3.2132,3.2142,3.2152,3.2148,3.2171,3.2167,3.219,3.2189,3.2202,3.2193,3.2193,3.22,3.2203,3.2198,3.2197,3.2199,3.2202,3.2211,3.2211,3.2211,3.2211,0,3.2063,3.2083,3.2075,3.2094,3.2099,3.209,3.2106,3.2102,3.2115,3.211,3.2111,3.213,3.213,3.2148,3.215,3.216,3.2145,3.2152,3.2142,3.2145,3.2129,3.2131,3.2071,3.2065,3.2123,3.2123,3.2122,0,3.2032,3.2024,3.2044,3.2044,3.2051,3.2051,3.2053,3.2076,3.2077,3.2088,3.2082,3.2085,3.2088,3.2086,3.21,3.2103,3.2111,3.209,3.2111,3.2107,3.2112,3.2113,3.2113,3.2085,3.2085,3.2084,3.2084,0,3.1975,3.1986,3.1989,3.1996,3.1998,3.2004,3.2011,3.201,3.2035,3.2035,3.2036,3.2038,3.2043,3.2045,3.205,3.2057,3.2075,3.2077,3.2074,3.2068,3.2064,3.2067,3.2131,3.2078,3.2079,3.2079,3.2079,3.208,3.1932,3.1927,3.1941,3.1944,3.1952,3.1959,3.1957,3.197,3.1972,3.1979,3.1992,3.1991,3.2002,3.2012,3.2017,3.2017,3.2028,3.2022,3.2021,3.202,3.2017,3.2063,3.2018,3.2018,3.2018,3.2018,3.2019,0,3.1878,3.1889,3.1891,3.1902,3.1904,3.1922,3.1931,3.1932,3.1932,3.1941,3.1944,3.1946,3.1949,3.1964,3.1969,3.1966,3.1974,3.1966,3.1967,3.1968,3.2007,3.201,3.1959,3.1959,3.1959,3.1959,3.1959,3.1959,3.185,3.1844,3.1856,3.1855,3.1865,3.1867,3.1871,3.1877,3.1885,3.1887,3.189,3.1901,3.1913,3.1918,3.1922,3.1926,3.1927,3.1917,3.1924,3.196,3.1965,3.1971,3.1974,3.1916,3.1916,3.1885,3.1885,3.1885]}]]